Regional Weather Roundup
Issued by NWS

Home | Current Version | Previous Version | Graphics & Text | Print | Product List | Glossary On
Versions: 1 2 3 4 5 6 7 8 9 10 11 12 13 14 15 16 17 18 19 20 21 22 23 24 25 26 27 28 29 30 31 32 33 34 35 36 37 38 39 40 41 42 43 44 45 46 47 48 49 50
000
ASUS43 KBIS 300510
RWRND

NORTH DAKOTA REGIONAL WEATHER ROUNDUP
NATIONAL WEATHER SERVICE BISMARCK ND
1200 AM CDT SUN AUG 30 2015

NOTE: "FAIR" INDICATES FEW OR NO CLOUDS BELOW 12,000 FEET WITH NO
SIGNIFICANT WEATHER AND/OR OBSTRUCTIONS TO VISIBILITY.


NDZ001>003-009>011-017-300600-
NORTHWEST NORTH DAKOTA

CITY           SKY/WX    TMP DP  RH WIND       PRES   REMARKS
WILLISTON      MOCLDY    70  52  52 CALM      29.74F HAZE
MINOT          CLOUDY    73  60  63 CALM      29.74F HAZE
MINOT AFB      CLOUDY    71  61  70 E5        29.74F
$$

NDZ018>021-031>035-040>046-300600-
SOUTHWEST NORTH DAKOTA

CITY           SKY/WX    TMP DP  RH WIND       PRES   REMARKS
BISMARCK       PTCLDY    70  63  78 SE8       29.81F
DICKINSON      CLOUDY    67  52  58 S9        29.80F
GARRISON         N/A     75  63  66 S7        29.78S
HETTINGER ARPT MOCLDY    73  53  49 SE9       29.85F
$$

NDZ004>008-012>016-024-026-027-054-300600-
NORTHEAST NORTH DAKOTA

CITY           SKY/WX    TMP DP  RH WIND       PRES   REMARKS
GRAND FORKS    CLEAR     70  67  90 S12       29.80S
GRND FRKS AFB  CLEAR     71  68  93 S12       29.80F
DEVILS LAKE    MOCLDY    73  64  73 S10       29.79S
$$

NDZ022-023-025-028>030-036>039-047>053-300600-
SOUTHEAST NORTH DAKOTA

CITY           SKY/WX    TMP DP  RH WIND       PRES   REMARKS
FARGO          CLEAR     70  65  84 S13       29.86S
JAMESTOWN      CLEAR     71  69  93 S14       29.83F
$$



USA.gov is the U.S. government's official web portal to all federal, state and local government web resources and services.